Flag for Mexico Weather past 2 weeks in Playa del Carmen, Quintana Roo, Mexico

Now
77 °F

Passing clouds.


Feels Like: 78 °F
Forecast: 80 / 92 °F
Wind: No wind

Location: Cozumel Civ / Mil

Current Time: Jul 28, 2015 at 10:28:15 PM

Latest Report: Jul 28, 2015 at 8:46 PM


Visibility: 7 mi

Pressure: 30.01 "Hg

Humidity: 94%

Dew point: 75 °F

Location of Playa del CarmenLocation

Historic Weather in Playa del Carmen — Graph

°F

Playa del Carmen temperature yesterday

Maximum temperature yesterday: 88 °F (at 10:52 AM)
Minimum temperature yesterday: 70 °F (at 4:45 AM)
Average temperature yesterday: 79 °F

Past Weeks' High & Low Weather Summary

 TemperatureHumidityPressure
High88 °F (Jul 23, 12:46 PM)100% (Jul 14, 1:01 AM)30.09 "Hg (Jul 14, 1:01 AM)
Low66 °F (Jul 21, 5:43 AM)62% (Jul 15, 2:40 PM)29.89 "Hg (Jul 20, 3:10 AM)
Average78 °F88%30.00 "Hg
* Reported Jul 13 8:45 PM — Jul 28 8:46 PM, Playa del Carmen, Weather by CustomWeather, © 2015

Note: Actual official high and low records may vary slightly from our data, if they occured in-between our weather recording intervals... More about our weather records

Advertising

Playa del Carmen weather history for previous 24 hours

 ConditionsComfort  
Time TempWeatherWind HumidityBarometerVisibility
8:46 PM
Tue, Jul 28
77 °FPassing clouds.No wind94%30.01 "Hg7 mi
7:46 PM81 °FScattered clouds.No wind89%30.00 "Hg7 mi
6:44 PM82 °FScattered clouds.12 mph79%29.96 "Hg7 mi
2:55 PM88 °FScattered clouds.16 mph62%29.97 "Hg8 mi
12:50 PM86 °FScattered clouds.12 mph70%29.99 "Hg8 mi
11:48 AM86 °FScattered clouds.8 mph70%30.01 "Hg8 mi
10:50 AM86 °FScattered clouds.8 mph75%30.02 "Hg8 mi
9:43 AM81 °FScattered clouds.No wind89%30.03 "Hg7 mi
6:46 AM73 °FPassing clouds.No wind100%30.00 "Hg8 mi
5:47 AM73 °FPassing clouds.No wind100%29.94 "Hg7 mi
3:42 AM73 °FPassing clouds.No wind100%29.96 "Hg7 mi
2:40 AM75 °FPassing clouds.No wind94%29.95 "Hg7 mi
1:52 AM75 °FPassing clouds.No wind100%29.97 "Hg7 mi
12:55 AM75 °FPassing clouds.No wind94%29.98 "Hg7 mi
11:40 PM
Mon, Jul 27
77 °FPassing clouds.No wind94%30.01 "Hg7 mi
10:42 PM79 °FPassing clouds.No wind89%30.02 "Hg7 mi
Weather by CustomWeather, © 2015

See weather overviewHow to use our weather pages